Charleston, SC

11:25 PM EDT on May 24, 2018 (GMT -0400)
Charleston Air Force Base-International

Weather History for KCHS - February, 2012

Change the Weather History Date:

Sunday, February 19, 2012

  Actual Average Record
Temperature  
Mean Temperature 57 °F 52 °F  
Max Temperature 70 °F 64 °F 83 °F (1956)
Min Temperature 44 °F 41 °F 20 °F (1958)
Degree Days  
Heating Degree Days 8 13  
Month to date heating degree days 212 272  
Since 1 July heating degree days 1184 1531  
Cooling Degree Days 0 0  
Month to date cooling degree days 3 0  
Year to date cooling degree days 3 2  
Growing Degree Days 7 (Base 50)    
Moisture  
Dew Point 57 °F    
Average Humidity 86    
Maximum Humidity 100    
Minimum Humidity 72    
Precipitation  
Precipitation 1.26 in 0.11 in 1.26 in (2012)
Month to date precipitation 2.08 2.01  
Year to date precipitation 2.72 5.72  
Snow  
Snow 0.00 in 0.00 in - ()
Month to date snowfall 0.0  
Since 1 July snowfall 0.0 0.4  
Snow Depth 0.00 in    
Sea Level Pressure  
Sea Level Pressure 29.72 in    
Wind  
Wind Speed 10 mph (North)    
Max Wind Speed 25 mph    
Max Gust Speed 32 mph    
Visibility 7 miles    
Events Rain , Thunderstorm    
T = Trace of Precipitation, MM = Missing Value Source: NWS Daily Summary

Daily Weather History Graph

Daily Weather History Graph

Search for Another Location

Airport or City:

Astronomy

Feb. 19, 2012 Rise Set
Actual Time 6:59 AM EST 6:08 PM EST
Civil Twilight 6:34 AM EST 6:33 PM EST
Nautical Twilight 6:05 AM EST 7:02 PM EST
Astronomical Twilight 5:37 AM EST 7:31 PM EST
Moon 5:14 AM EST (2/19) 4:12 PM EST (2/19)
Length of Visible Light 11h 58m
Length of Day
11h 08m
Waning Crescent, 5% of the Moon is Illuminated
Feb 19
Waning Crescent
Feb 21
New
Feb 29
First Quarter
Mar 8
Full
Mar 14
Last Quarter

Hourly Weather History & Observations

Time (EST) Temp. Windchill Dew Point Humidity Pressure Visibility Wind Dir Wind Speed Gust Speed Precip Events Conditions
12:56 AM 57.0 °F - 55.9 °F 96% 29.89 in 3.0 mi NNE 8.1 mph - 0.28 in Rain Rain
1:56 AM 57.0 °F - 55.9 °F 96% 29.86 in 6.0 mi ENE 9.2 mph - 0.17 in Rain Light Rain
2:56 AM 57.0 °F - 55.9 °F 96% 29.86 in 4.0 mi NNE 5.8 mph - 0.18 in Rain Heavy Rain
3:56 AM 57.0 °F - 55.9 °F 96% 29.80 in 10.0 mi East 17.3 mph - 0.11 in Rain Light Rain
4:30 AM 57.2 °F - 55.4 °F 94% 29.81 in 10.0 mi ENE 18.4 mph - 0.01 in Rain Light Rain
4:54 AM 57.2 °F - 55.4 °F 94% 29.85 in 4.0 mi North 5.8 mph - 0.06 in Rain Light Rain
4:56 AM 57.0 °F - 55.0 °F 93% 29.85 in 6.0 mi NNE 6.9 mph - 0.06 in Rain Light Rain
5:56 AM 55.9 °F - 54.0 °F 93% 29.84 in 10.0 mi East 9.2 mph - 0.00 in   Overcast
6:27 AM 55.4 °F - 53.6 °F 94% 29.75 in 10.0 mi East 24.2 mph 31.1 mph 0.01 in Rain Light Rain
6:35 AM 55.4 °F - 53.6 °F 94% 29.75 in 8.0 mi ESE 21.9 mph 32.2 mph 0.01 in Rain Light Rain
6:56 AM 55.0 °F - 53.1 °F 93% 29.81 in 10.0 mi NNE 6.9 mph - 0.01 in   Overcast
7:56 AM 55.9 °F - 54.0 °F 93% 29.80 in 10.0 mi ESE 6.9 mph - N/A   Overcast
8:56 AM 57.0 °F - 55.9 °F 96% 29.78 in 3.0 mi East 6.9 mph - 0.03 in Rain Rain
9:04 AM 57.2 °F - 55.4 °F 94% 29.78 in 3.0 mi ESE 4.6 mph - 0.00 in Rain Rain
9:56 AM 60.1 °F - 59.0 °F 96% 29.74 in 8.0 mi SE 9.2 mph - 0.02 in Rain Light Rain
10:56 AM 62.1 °F - 60.1 °F 93% 29.73 in 7.0 mi Calm Calm - 0.02 in Rain Light Rain
11:56 AM 62.1 °F - 61.0 °F 96% 29.69 in 3.0 mi Calm Calm - 0.03 in Rain Rain
12:56 PM 64.0 °F - 63.0 °F 96% 29.65 in 4.0 mi SW 13.8 mph - 0.00 in Rain Light Rain
1:56 PM 66.9 °F - 64.0 °F 90% 29.62 in 6.0 mi SW 10.4 mph - 0.00 in Rain Light Rain
2:23 PM 69.8 °F - 64.4 °F 83% 29.60 in 8.0 mi WSW 8.1 mph - 0.00 in   Mostly Cloudy
2:50 PM 68.0 °F - 64.4 °F 88% 29.58 in 7.0 mi South 6.9 mph - 0.00 in   Mostly Cloudy
2:56 PM 66.9 °F - 64.0 °F 90% 29.58 in 6.0 mi SSW 6.9 mph - 0.00 in   Overcast
3:04 PM 66.2 °F - 64.4 °F 94% 29.58 in 5.0 mi Calm Calm - 0.00 in Rain , Thunderstorm Light Thunderstorms and Rain
3:16 PM 66.2 °F - 64.4 °F 94% 29.58 in 2.5 mi South 3.5 mph - 0.02 in Rain , Thunderstorm Light Thunderstorms and Rain
3:25 PM 66.2 °F - 64.4 °F 94% 29.58 in 1.5 mi Calm Calm - 0.04 in Rain , Thunderstorm Thunderstorms and Rain
3:28 PM 66.2 °F - 64.4 °F 94% 29.58 in 1.0 mi Calm Calm - 0.06 in Rain , Thunderstorm Heavy Thunderstorms and Rain
3:45 PM 66.2 °F - 64.4 °F 94% 29.58 in 2.0 mi SSW 5.8 mph - 0.35 in Rain , Thunderstorm Light Thunderstorms and Rain
3:50 PM 66.2 °F - 64.4 °F 94% 29.59 in 3.0 mi West 10.4 mph - 0.35 in Rain Light Rain
3:56 PM 66.0 °F - 64.0 °F 93% 29.59 in 7.0 mi WNW 10.4 mph 18.4 mph 0.36 in Rain Light Rain
4:27 PM 66.2 °F - 60.8 °F 83% 29.60 in 10.0 mi West 15.0 mph 21.9 mph 0.00 in   Mostly Cloudy
4:56 PM 66.0 °F - 60.1 °F 81% 29.61 in 10.0 mi WNW 12.7 mph 21.9 mph 0.00 in   Mostly Cloudy
5:56 PM 63.0 °F - 57.0 °F 81% 29.63 in 10.0 mi WNW 9.2 mph - N/A   Scattered Clouds
6:56 PM 63.0 °F - 55.9 °F 78% 29.67 in 10.0 mi West 9.2 mph 18.4 mph N/A   Mostly Cloudy
7:56 PM 62.1 °F - 54.0 °F 75% 29.69 in 10.0 mi WNW 16.1 mph 23.0 mph N/A   Scattered Clouds
8:13 PM 55.4 °F - 51.8 °F 88% 29.72 in 10.0 mi NNW 18.4 mph - N/A   Mostly Cloudy
8:33 PM 53.6 °F - 50.0 °F 88% 29.73 in 10.0 mi NNW 16.1 mph - N/A   Mostly Cloudy
8:54 PM 51.8 °F - 48.2 °F 88% 29.76 in 10.0 mi North 18.4 mph - N/A   Overcast
8:56 PM 51.1 °F - 46.9 °F 86% 29.77 in 10.0 mi North 20.7 mph - N/A   Overcast
9:56 PM 46.9 °F - 44.1 °F 90% 29.82 in 5.0 mi NNW 19.6 mph 26.5 mph 0.00 in Rain Light Rain
10:56 PM 45.0 °F 37.4 °F 41.0 °F 86% 29.86 in 10.0 mi NNW 18.4 mph 25.3 mph 0.00 in   Overcast
11:56 PM 44.1 °F 36.5 °F 39.9 °F 85% 29.87 in 10.0 mi NNW 17.3 mph 23.0 mph N/A   Overcast